COSMOS 2251 DEB, 33779

Orbit data source: Space-Track

COSMOS 2251 DEB, 33779 is space debris in LEO originally from a launch on Wed, 16 Jun 1993 UTC launched from the Plesetsk Missile And Space Complex (PKMTR). The debris from Iridium 33, an American commercial communications satellite, has been tracked extensively since its accidental collision with the defunct Russian satellite Cosmos 2251 in 2009. This event, occurring at high speed in low Earth orbit (LEO), generated thousands of pieces of space debris, significantly increasing the risk of further collisions. The Iridium 33 debris cloud has impacted space traffic management and orbital debris mitigation strategies, making it a subject of ongoing study in space situational awareness.

Loading next visibility...
Identifier
33779, 1993-036U
Orbit
LEO
Country
Flag of CISCIS
Related business
Manufacturer
Unknown
Mission
Spacecraft
Bus & Motor
Unknown
Mass
Unknown
Launch date (UTC)
1993-06-16 (33 years ago)
Launch vehicle
Unknown
Launch site
Plesetsk Missile And Space Complex (PKMTR)
Object type
Payload
Rocket body
Debris
Shape & HBR
Unknown shape, 0.1 m
Radar Cross Section
Small (<0.1 m²)

Expand to show TLE details & history
Last TLE update: 1 day ago

TLE from 1 day ago
0 COSMOS 2251 DEB
1 33779U 93036U   26036.07004968  .00011221  00000-0  17752-2 0  9992
2 33779  74.0438  65.2092 0010389  79.2465 311.8020 14.72315538893278
Epoch: 2026-02-05T01:40Z
TLE epoch observation values (Epoch: 2026-02-05T01:40:52.292Z)
Latitude
29.70216°
Longitude
-85.90065°
Altitude
652.244 km
Speed
7.537 km/s
True Right ascension
04h 58m 10s
True Declination
29° 33' 08"
Sunlit
Object was in full shadow at epoch
Visualization orbit readout
Latitude
Unknown
Longitude
Unknown
Altitude
Unknown
Speed
Unknown
Apparent Right ascension
Unknown
Apparent Declination
Unknown
Sunlit
N/A
Visualization observer readout
Local Sidereal Time
07:58:41
Azimuth
Unknown
Elevation
Unknown
Doppler factor
Unknown
Orbital elements
Apogee altitude
658.572 km
Perigee altitude
643.966 km
Semi-major axis
7,029.406 km
Eccentricity
0.00104
Inclination
74.0438°
RAAN
65.2092°
Arg. of periapsis
79.2465°
True anomaly
311.71318°
Mean anomaly
311.802°
Eccentric anomaly
311.7576°
Mean motion
3.68269 °/min
Orbital period
97.75 mins
BSTAR
0.0017752
Loading maneuver chart data...
Computing Atmospheric mass density...

Documentation

Showing up to 5 results
|